COSMOS 2251 DEB, 38199

Orbit data source: Space-Track

COSMOS 2251 DEB, 38199 is space debris in LEO originally from a launch on Wed, 16 Jun 1993 UTC launched from the Plesetsk Missile And Space Complex (PKMTR). The debris from Iridium 33, an American commercial communications satellite, has been tracked extensively since its accidental collision with the defunct Russian satellite Cosmos 2251 in 2009. This event, occurring at high speed in low Earth orbit (LEO), generated thousands of pieces of space debris, significantly increasing the risk of further collisions. The Iridium 33 debris cloud has impacted space traffic management and orbital debris mitigation strategies, making it a subject of ongoing study in space situational awareness.

Loading next visibility...
Identifier
38199, 1993-036BSP
Orbit
LEO
Country
Flag of CISCIS
Related business
Manufacturer
Unknown
Mission
Spacecraft
Bus & Motor
Unknown
Mass
Unknown
Launch date (UTC)
1993-06-16 (32 years ago)
Launch vehicle
Unknown
Launch site
Plesetsk Missile And Space Complex (PKMTR)
Object type
Payload
Rocket body
Debris
Shape & HBR
Unknown shape, 0.1 m
Radar Cross Section
Small (<0.1 m²)

Expand to show TLE details & history
Last TLE update: 2 days ago

TLE from 2 days ago
0 COSMOS 2251 DEB
1 38199U 93036BSP 25294.95022763  .00001200  00000-0  95332-3 0  9995
2 38199  73.9540 147.2688 0368469  84.2600 280.0394 13.64699591603156
Epoch: 2025-10-21T22:48Z
TLE epoch observation values (Epoch: 2025-10-21T22:48:19.667Z)
Latitude
-0.00006°
Longitude
134.556°
Altitude
983.49 km
Speed
7.379 km/s
True Right ascension
09h 49m 04s
True Declination
0° 00' 00"
Sunlit
Object was in daylight at epoch
Visualization orbit readout
Latitude
Unknown
Longitude
Unknown
Altitude
Unknown
Speed
Unknown
Apparent Right ascension
Unknown
Apparent Declination
Unknown
Sunlit
N/A
Visualization observer readout
Local Sidereal Time
14:47:23
Azimuth
Unknown
Elevation
Unknown
Doppler factor
Unknown
Orbital elements
Apogee altitude
1,288.832 km
Perigee altitude
743.903 km
Semi-major axis
7,394.504 km
Eccentricity
0.03685
Inclination
73.954°
RAAN
147.2688°
Arg. of periapsis
84.26°
True anomaly
275.8518°
Mean anomaly
280.0394°
Eccentric anomaly
277.94851°
Mean motion
3.41334 °/min
Orbital period
105.47 mins
BSTAR
0.00095332

Documentation

Showing up to 5 results
|